Regional Weather Roundup
Issued by NWS Kansas City/Pleasant Hill, MO

Home | Current Version | Previous Version | Graphics & Text | Print | Product List | Glossary Off
Versions: 1 2 3 4 5 6 7 8 9 10 11 12 13 14 15 16 17 18 19 20 21 22 23 24 25 26 27

000
ASUS43 KEAX 161910
RWREAX

WEATHER ROUNDUP FOR EASTERN KANSAS AND NORTHWEST MISSOURI
NATIONAL WEATHER SERVICE KANSAS CITY/PLEASANT HILL MO
100 PM CST SAT DEC 16 2017

KSZ040-057-103>105-MOZ028-029-037-043-162000-
...KANSAS CITY METROPOLITAN AREA...

CITY           SKY/WX    TMP DP  RH WIND       PRES   REMARKS
K.C. INTL      MOSUNNY   54  27  35 S16       29.87F
K.C. DOWNTOWN  SUNNY     59  28  30 S9        29.87F
LEES SUMMIT    SUNNY     58  28  32 SW22G30   29.88F
OLATHE - IXD   SUNNY     57  27  31 S21G28    29.89F
OLATHE - OJC   SUNNY     56  27  32 S16G23    29.88F
LAWRENCE       SUNNY     57  28  33 S10       29.87F

$$

MOZ001>008-011>017-020>025-030>033-038>040-044>046-053-054-162000-
...NORTHERN AND CENTRAL MISSOURI...

CITY           SKY/WX    TMP DP  RH WIND       PRES   REMARKS
ST. JOSEPH     SUNNY     54  28  36 SW16      29.86F
MOSBY          CLEAR     54  27  35 SW13G18   29.88F
WARRENSBURG    SUNNY     57  27  30 S18G24    29.90F
WHITEMAN AFB   SUNNY     58  26  29 SW17G25   29.86F
CLINTON        SUNNY     59  28  31 SW18G28   29.93F
SEDALIA        SUNNY     60  28  29 SW22      29.92F
WARSAW         NOT AVBL
CHILLICOTHE      N/A     53  27  36 S12       29.88F
KIRKSVILLE     SUNNY     52  30  43 SW13      29.87F

$$

MOZ041-047>049-056>058-063>065-088>090-097-162000-
...EASTERN AND SOUTHERN MISSOURI...

CITY           SKY/WX    TMP DP  RH WIND       PRES   REMARKS
ST. LOUIS INTL MOSUNNY   59  27  29 SW17G24   29.96F
SPIRIT OF STL  SUNNY     60  27  28 SW9G23    29.95F
COLUMBIA       SUNNY     60  27  28 SW17G24   29.93F
JEFFERSON CITY SUNNY     60  27  28 SW12G22   29.94F
ROLLA          SUNNY     58  27  30 SW14G26   29.97F
OSAGE BEACH    SUNNY     60  27  28 SW13G21   29.96F
SPRINGFIELD    SUNNY     59  26  28 SW17      29.99F
BRANSON        MOSUNNY   57  23  26 SW13G18   30.04F
JOPLIN         SUNNY     56  27  32 SW18G29   29.98F
WEST PLAINS    SUNNY     55  25  31 SW10G16   30.04F

$$

IAZ060-094-KSZ022-034>040-054-083-096-NEZ052-066-093-162000-
...KANSAS...SOUTHEAST NEBRASKA AND IOWA...

CITY           SKY/WX    TMP DP  RH WIND       PRES   REMARKS
TOPEKA         SUNNY     56  29  35 S12G18    29.85F
MANHATTAN      SUNNY     57  27  31 S8        29.82F
EMPORIA        SUNNY     59  27  29 S14G25    29.86F
CHANUTE        SUNNY     57  27  31 S20G32    29.93F
WICHITA        SUNNY     57  29  34 S23       29.84F
OMAHA          PTSUNNY   51  25  36 N8        29.84F
LINCOLN        CLOUDY    54  25  32 NE13      29.84S
FALLS CITY     SUNNY     53  25  33 S9        29.84S
LAMONI         SUNNY     50  26  39 SW9       29.84F
DES MOINES     PTSUNNY   50  26  39 VRB5      29.83S

$$





USA.gov is the U.S. government's official web portal to all federal, state and local government web resources and services.